Weather History for KFOE - September, 2012

Change the Weather History Date:

Sunday, September 2, 2012

  Actual Average Record
Temperature  
Mean Temperature 77 °F -  
Max Temperature 91 °F 85 °F 109 °F (2000)
Min Temperature 63 °F 62 °F 48 °F (1949)
Cooling Degree Days 12    
Growing Degree Days 27 (Base 50)    
Moisture  
Dew Point 64 °F    
Average Humidity 70    
Maximum Humidity 97    
Minimum Humidity 39    
Precipitation  
Precipitation 0.00 in - - ()
Sea Level Pressure  
Sea Level Pressure 29.91 in    
Wind  
Wind Speed 2 mph (East)    
Max Wind Speed 7 mph    
Max Gust Speed -    
Visibility 10 miles    
Events      
Averages and records for this station are not official NWS values.
T = Trace of Precipitation, MM = Missing Value Source: NWS Daily Summary

Daily Weather History Graph

Daily Weather History Graph

Search for Another Location

Airport or City:

Trip Planner

Search our weather history database for the weather conditions in past years. The results will help you decide how hot, cold, wet, or windy it might be!

Date:

Astronomy

Sep. 02, 2012 Rise Set
Actual Time 6:52 AM CDT 7:50 PM CDT
Civil Twilight 6:25 AM CDT 8:17 PM CDT
Nautical Twilight 5:53 AM CDT 8:50 PM CDT
Astronomical Twilight 5:19 AM CDT 9:23 PM CDT
Moon 8:40 PM CDT (9/2) 9:00 AM CDT (9/2)
Length of Visible Light 13h 52m
Length of Day
12h 57m
Waning Gibbous, 95% of the Moon is Illuminated
Sep 2
Waning Gibbous
Sep 8
Last Quarter
Sep 15
New
Sep 22
First Quarter
Sep 29
Full

Hourly Weather History & Observations

Time (CDT) Temp. Heat Index Dew Point Humidity Pressure Visibility Wind Dir Wind Speed Gust Speed Precip Events Conditions
12:53 AM 68.0 °F - 64.9 °F 90% 29.94 in 10.0 mi Calm Calm - N/A   Clear
1:53 AM 66.9 °F - 64.9 °F 93% 29.94 in 10.0 mi Calm Calm - N/A   Clear
2:53 AM 64.9 °F - 63.0 °F 93% 29.93 in 10.0 mi Calm Calm - N/A   Clear
3:53 AM 64.9 °F - 63.0 °F 93% 29.93 in 10.0 mi Calm Calm - N/A   Clear
4:53 AM 63.0 °F - 62.1 °F 97% 29.93 in 10.0 mi Calm Calm - N/A   Clear
5:53 AM 63.0 °F - 61.0 °F 93% 29.92 in 6.0 mi Calm Calm - N/A   Clear
6:53 AM 63.0 °F - 61.0 °F 93% 29.94 in 8.0 mi Calm Calm - N/A   Clear
7:53 AM 64.9 °F - 63.0 °F 93% 29.96 in 10.0 mi Calm Calm - N/A   Clear
8:53 AM 71.1 °F - 66.9 °F 87% 29.96 in 10.0 mi WSW 5.8 mph - N/A   Clear
9:53 AM 75.0 °F - 66.0 °F 73% 29.96 in 10.0 mi Variable 3.5 mph - N/A   Clear
10:53 AM 78.1 °F - 66.9 °F 68% 29.95 in 10.0 mi Calm Calm - N/A   Clear
11:53 AM 82.0 °F 84.5 °F 66.9 °F 60% 29.95 in 10.0 mi Calm Calm - N/A   Clear
12:53 PM 86.0 °F 87.6 °F 64.9 °F 49% 29.93 in 10.0 mi Variable 3.5 mph - N/A   Clear
1:53 PM 88.0 °F 89.6 °F 64.9 °F 46% 29.91 in 10.0 mi Variable 5.8 mph - N/A   Clear
2:53 PM 89.1 °F 91.3 °F 66.0 °F 46% 29.89 in 10.0 mi NE 6.9 mph - N/A   Clear
3:53 PM 90.0 °F 91.3 °F 64.0 °F 42% 29.87 in 10.0 mi East 4.6 mph - N/A   Clear
4:53 PM 91.0 °F 91.9 °F 63.0 °F 39% 29.86 in 10.0 mi ESE 4.6 mph - N/A   Clear
5:53 PM 90.0 °F 91.3 °F 64.0 °F 42% 29.86 in 10.0 mi NE 3.5 mph - N/A   Clear
6:53 PM 88.0 °F 89.6 °F 64.9 °F 46% 29.85 in 10.0 mi East 5.8 mph - N/A   Clear
7:53 PM 82.0 °F 83.8 °F 64.9 °F 56% 29.86 in 10.0 mi East 3.5 mph - N/A   Clear
8:53 PM 79.0 °F - 64.9 °F 62% 29.87 in 10.0 mi East 5.8 mph - N/A   Clear
9:53 PM 77.0 °F - 64.9 °F 66% 29.87 in 10.0 mi ESE 4.6 mph - N/A   Clear
10:53 PM 75.0 °F - 66.0 °F 73% 29.86 in 10.0 mi ESE 6.9 mph - N/A   Clear
11:53 PM 73.0 °F - 64.9 °F 76% 29.87 in 10.0 mi SE 3.5 mph - N/A   Clear